Previsão horária em Aberlour

Hoje, 19 Janeiro, Terça-feira

Tempo Temperatura Precipitação Vento Pressão Humidade
00:00 -1°C° 0 mm 3 m/s 734 mmHg 92%
01:00 -1°C° 0 mm 3 m/s 733 mmHg 92%
02:00 -1°C° 0 mm 3 m/s 732 mmHg 92%
03:00 -2°C° 0 mm 3 m/s 732 mmHg 92%
04:00 -2°C° 0 mm 3 m/s 731 mmHg 91%
05:00 -2°C° 0 mm 3 m/s 731 mmHg 91%
06:00 -2°C° 0 mm 3 m/s 731 mmHg 91%
07:00 -2°C° 0 mm 3 m/s 730 mmHg 90%
08:00 -2°C° 0 mm 3 m/s 730 mmHg 89%
09:00 -2°C° 0 mm 3 m/s 730 mmHg 88%
10:00 -1°C° 0 mm 3 m/s 729 mmHg 85%
11:00 0°C° 0 mm 3 m/s 729 mmHg 82%
12:00 +1°C° 0 mm 3 m/s 729 mmHg 79%
13:00 +1°C° 0 mm 3 m/s 728 mmHg 80%
14:00 +2°C° 0 mm 2 m/s 728 mmHg 81%
15:00 +1°C° 0 mm 2 m/s 727 mmHg 83%
16:00 +1°C° 0 mm 2 m/s 727 mmHg 83%
17:00 -1°C° 0 mm 2 m/s 726 mmHg 83%
18:00 0°C° 0 mm 1 m/s 726 mmHg 83%
19:00 0°C° 0 mm 1 m/s 726 mmHg 84%
20:00 0°C° 0 mm 1 m/s 725 mmHg 84%
21:00 0°C° 0 mm 1 m/s 725 mmHg 85%
22:00 0°C° 0 mm 1 m/s 725 mmHg 86%
23:00 0°C° 0 mm 1 m/s 724 mmHg 86%

Amanhã, 20 Janeiro, Quarta-feira

Tempo Temperatura Precipitação Vento Pressão Humidade
00:00 -1°C° 0 mm 0 m/s 724 mmHg 87%
01:00 -1°C° 0 mm 0 m/s 724 mmHg 87%
02:00 -2°C° 0 mm 0 m/s 723 mmHg 87%
03:00 -2°C° 0 mm 0 m/s 723 mmHg 88%
04:00 -2°C° 0 mm 0 m/s 723 mmHg 88%
05:00 -2°C° 0 mm 0 m/s 723 mmHg 89%
06:00 -1°C° 0 mm 1 m/s 723 mmHg 90%
07:00 -1°C° 0 mm 1 m/s 723 mmHg 90%
08:00 -1°C° 0 mm 1 m/s 722 mmHg 91%
09:00 -1°C° 0 mm 1 m/s 722 mmHg 92%
10:00 0°C° 0 mm 1 m/s 722 mmHg 90%
11:00 +1°C° 0 mm 1 m/s 722 mmHg 88%
12:00 +2°C° 0 mm 1 m/s 722 mmHg 86%
13:00 +1°C° 0 mm 2 m/s 722 mmHg 88%
14:00 +1°C° 0 mm 2 m/s 722 mmHg 90%
15:00 +1°C° 0 mm 2 m/s 721 mmHg 92%
16:00 0°C° 0.3 mm 3 m/s 721 mmHg 93%
17:00 0°C° 0.3 mm 3 m/s 721 mmHg 94%
18:00 -1°C° 0.3 mm 4 m/s 720 mmHg 95%
19:00 -1°C° 0.3 mm 5 m/s 720 mmHg 96%
20:00 -1°C° 0.3 mm 6 m/s 719 mmHg 96%
21:00 -1°C° 0.3 mm 8 m/s 719 mmHg 97%
22:00 -1°C° 1.3 mm 8 m/s 718 mmHg 97%
23:00 -3°C° 1.3 mm 9 m/s 717 mmHg 97%

Depois de amanhã, 21 Janeiro, Quinta-feira

Tempo Temperatura Precipitação Vento Pressão Humidade
00:00 -3°C° 1.3 mm 9 m/s 716 mmHg 97%
01:00 -3°C° 1.7 mm 9 m/s 716 mmHg 96%
02:00 -3°C° 1.7 mm 9 m/s 715 mmHg 95%
03:00 -3°C° 1.7 mm 9 m/s 714 mmHg 94%
04:00 -3°C° 0.8 mm 9 m/s 714 mmHg 92%
05:00 -3°C° 0.8 mm 9 m/s 713 mmHg 89%
06:00 -1°C° 0.8 mm 9 m/s 713 mmHg 86%
07:00 -1°C° 0.4 mm 9 m/s 712 mmHg 87%
08:00 -1°C° 0.4 mm 9 m/s 712 mmHg 87%
09:00 -2°C° 0.4 mm 10 m/s 712 mmHg 88%
10:00 -2°C° 0.4 mm 10 m/s 712 mmHg 88%
11:00 -2°C° 0.4 mm 10 m/s 712 mmHg 89%
12:00 -2°C° 0.4 mm 10 m/s 712 mmHg 89%
13:00 -1°C° 0.3 mm 9 m/s 713 mmHg 87%
14:00 -1°C° 0.3 mm 9 m/s 713 mmHg 85%
15:00 -1°C° 0.3 mm 9 m/s 713 mmHg 83%
16:00 -1°C° 0.4 mm 9 m/s 714 mmHg 86%
17:00 -2°C° 0.4 mm 8 m/s 714 mmHg 88%
18:00 -2°C° 0.4 mm 8 m/s 715 mmHg 91%
19:00 -3°C° 0.5 mm 9 m/s 715 mmHg 92%
20:00 -3°C° 0.5 mm 9 m/s 716 mmHg 93%
21:00 -3°C° 0.5 mm 9 m/s 716 mmHg 94%
22:00 -3°C° 0.5 mm 9 m/s 717 mmHg 93%
23:00 -2°C° 0.5 mm 8 m/s 717 mmHg 92%

22 Janeiro, Sexta-feira

Tempo Temperatura Precipitação Vento Pressão Humidade
00:00 -4°C° 0.5 mm 8 m/s 718 mmHg 91%
01:00 -4°C° 0.4 mm 8 m/s 719 mmHg 91%
02:00 -3°C° 0.4 mm 7 m/s 719 mmHg 91%
03:00 -3°C° 0.4 mm 7 m/s 720 mmHg 90%
04:00 -3°C° 0.5 mm 7 m/s 720 mmHg 90%
05:00 -3°C° 0.5 mm 7 m/s 721 mmHg 90%
06:00 -3°C° 0.5 mm 7 m/s 721 mmHg 89%
07:00 -3°C° 0.5 mm 7 m/s 722 mmHg 89%
08:00 -3°C° 0.5 mm 7 m/s 722 mmHg 89%
09:00 -3°C° 0.5 mm 6 m/s 723 mmHg 90%
10:00 -3°C° 0.1 mm 6 m/s 723 mmHg 87%
11:00 -3°C° 0.1 mm 6 m/s 723 mmHg 84%
12:00 -3°C° 0.1 mm 6 m/s 724 mmHg 80%
13:00 -3°C° 0 mm 6 m/s 724 mmHg 81%
14:00 -4°C° 0 mm 6 m/s 724 mmHg 81%
15:00 -4°C° 0 mm 6 m/s 724 mmHg 81%
16:00 -5°C° 0 mm 5 m/s 724 mmHg 81%
17:00 -5°C° 0 mm 5 m/s 725 mmHg 82%
18:00 -6°C° 0 mm 5 m/s 725 mmHg 83%
19:00 -7°C° 0 mm 5 m/s 725 mmHg 82%
20:00 -7°C° 0 mm 5 m/s 725 mmHg 82%
21:00 -8°C° 0 mm 6 m/s 725 mmHg 81%
22:00 -8°C° 0 mm 6 m/s 725 mmHg 81%
23:00 -8°C° 0 mm 6 m/s 725 mmHg 81%

23 Janeiro, Sábado

Tempo Temperatura Precipitação Vento Pressão Humidade
00:00 -8°C° 0 mm 6 m/s 725 mmHg 82%
01:00 -8°C° 0 mm 6 m/s 725 mmHg 82%
02:00 -7°C° 0 mm 5 m/s 725 mmHg 82%
03:00 -8°C° 0 mm 5 m/s 725 mmHg 82%
04:00 -8°C° 0 mm 5 m/s 725 mmHg 82%
05:00 -8°C° 0 mm 5 m/s 725 mmHg 83%
06:00 -8°C° 0 mm 4 m/s 725 mmHg 83%
07:00 -8°C° 0 mm 4 m/s 725 mmHg 82%
08:00 -8°C° 0 mm 4 m/s 725 mmHg 82%
09:00 -8°C° 0 mm 4 m/s 725 mmHg 82%
10:00 -7°C° 0 mm 4 m/s 725 mmHg 81%
11:00 -5°C° 0 mm 4 m/s 725 mmHg 79%
12:00 -3°C° 0 mm 4 m/s 725 mmHg 78%
13:00 -4°C° 0 mm 5 m/s 725 mmHg 79%
14:00 -4°C° 0 mm 5 m/s 725 mmHg 79%
15:00 -4°C° 0 mm 5 m/s 725 mmHg 79%
16:00 -5°C° 0.1 mm 5 m/s 725 mmHg 81%
17:00 -5°C° 0.1 mm 5 m/s 724 mmHg 83%
18:00 -5°C° 0.1 mm 5 m/s 724 mmHg 85%
19:00 -5°C° 0 mm 5 m/s 724 mmHg 85%
20:00 -6°C° 0 mm 5 m/s 724 mmHg 85%
21:00 -6°C° 0 mm 5 m/s 724 mmHg 85%
22:00 -6°C° 0 mm 5 m/s 724 mmHg 83%
23:00 -6°C° 0 mm 5 m/s 724 mmHg 80%

24 Janeiro, Domingo

Tempo Temperatura Precipitação Vento Pressão Humidade
00:00 -6°C° 0 mm 5 m/s 723 mmHg 77%
01:00 -6°C° 0 mm 5 m/s 723 mmHg 79%
02:00 -5°C° 0 mm 5 m/s 723 mmHg 80%
03:00 -5°C° 0 mm 6 m/s 723 mmHg 82%
04:00 -5°C° 0 mm 6 m/s 723 mmHg 83%
05:00 -5°C° 0 mm 6 m/s 723 mmHg 84%
06:00 -5°C° 0 mm 6 m/s 723 mmHg 85%
07:00 -5°C° 0.1 mm 5 m/s 723 mmHg 85%
08:00 -5°C° 0.1 mm 5 m/s 724 mmHg 85%
09:00 -4°C° 0.1 mm 5 m/s 724 mmHg 85%
10:00 -4°C° 0.1 mm 5 m/s 724 mmHg 85%
11:00 -2°C° 0.1 mm 5 m/s 725 mmHg 85%
12:00 -2°C° 0.1 mm 4 m/s 725 mmHg 85%
13:00 -2°C° 0 mm 4 m/s 725 mmHg 86%
14:00 -2°C° 0 mm 4 m/s 725 mmHg 87%
15:00 -2°C° 0 mm 4 m/s 726 mmHg 88%
16:00 -2°C° 0 mm 4 m/s 726 mmHg 88%
17:00 -3°C° 0 mm 4 m/s 726 mmHg 89%
18:00 -3°C° 0 mm 4 m/s 727 mmHg 89%
19:00 -3°C° 0 mm 4 m/s 727 mmHg 89%
20:00 -4°C° 0 mm 5 m/s 727 mmHg 89%
21:00 -2°C° 0 mm 5 m/s 728 mmHg 89%
22:00 -2°C° 0 mm 5 m/s 728 mmHg 89%
23:00 -2°C° 0 mm 5 m/s 728 mmHg 89%
Mostrar mais